Regional Weather Roundup
Issued by NWS Jackson, KY

Home | Current Version | Previous Version | Text Only | Print | Product List | Glossary Off
Versions: 1 2 3 4 5 6 7 8 9 10 11 12 13 14 15 16 17 18 19 20 21 22 23 24 25 26 27 28 29 30 31 32 33 34 35 36 37 38 39 40 41 42 43 44 45 46 47 48 49 50

000
ASUS43 KJKL 211611
RWRJKL

EAST KENTUCKY HOURLY WEATHER ROUNDUP
NATIONAL WEATHER SERVICE JACKSON KY
1200 PM EDT TUE OCT 21 2014

NOTE: "FAIR" INDICATES FEW OR NO CLOUDS BELOW 12,000 FEET WITH
NO SIGNIFICANT WEATHER AND/OR OBSTRUCTIONS TO VISIBILITY.

* THESE REPORTS ARE NOT UNDER NWS QUALITY CONTROL AND MAY NOT
  REPORT WEATHER SUCH AS PRECIPITATION AND FOG.

KYZ079-080-083-085-087-088-110-112-115-119-120-211700
...EASTERN KENTUCKY...

CITY           SKY/WX    TMP DP  RH WIND       PRES   REMARKS
JACKSON        CLOUDY    54  46  74 VRB7      30.02R
LONDON         PTSUNNY   61  43  51 NW9       30.04R
SOMERSET*      CLOUDY    59  43  55 N5        30.06S
MONTICELLO*      N/A    N/A N/A N/A MISG        N/A
MIDDLESBORO*   MOSUNNY   62  47  58 NW8G17    30.03S
HARLAN APT*    PTSUNNY   59  43  55 NW13G22   30.02S
HAZARD APT*    CLOUDY    55  48  76 NW6       30.02R
BLACK MTN*       N/A     46  43  87 NW3         N/A
PIKEVILLE APT* CLOUDY    54  48  82 W12       29.99S
BIG SANDY*     CLOUDY    56  49  76 W6G18     29.99S
MOREHEAD APT*  CLOUDY    55  45  67 NW7G18    30.04R
$$

KYZ035-036-041-042-044-050-067-078-099-211700
...CENTRAL KENTUCKY...

CITY           SKY/WX    TMP DP  RH WIND       PRES   REMARKS
MT STERLING*   CLOUDY    55  45  67 N7        30.05R HAZE
FLEMING/MASON* CLOUDY    54  41  62 NW10      30.03S
DANVILLE*      CLOUDY    54  45  71 N10       30.07S
RICHMOND*      CLOUDY    54  45  71 NW9       30.05R
LEXINGTON      CLOUDY    57  45  64 NW10      30.05S
FRANKFORT      CLOUDY    55  43  63 NW6       30.06R
$$

KYZ091>093-OHZ055-061-077-WVZ005-015-034-035-042-211700
...SOUTHERN OHIO/WEST VIRGINIA...

CITY           SKY/WX    TMP DP  RH WIND       PRES   REMARKS
COVINGTON      PTSUNNY   56  43  61 NW10G18   30.04R
COLUMBUS       CLOUDY    50  44  80 NW12      29.98R
DAYTON         CLOUDY    51  44  77 N13       30.04R
WILMINGTON     CLOUDY    50  41  71 NW15      30.01S
HUNTINGTON     CLOUDY    54  45  71 NW13G22   29.98R
CHARLESTON     CLOUDY    54  50  86 VRB6      29.95R FOG
PINEVILLE*     CLOUDY    54  53  95 MISG      30.01R
BECKLEY        CLOUDY    52  46  80 W7        29.94R
BLUEFIELD      CLOUDY    53  47  79 W13G21    29.96R
$$

VAZ002-007-008-TNZ017-027-036-066-071-211700
...SOUTHWEST VIRGINIA/EAST TENNESSEE...

CITY           SKY/WX    TMP DP  RH WIND       PRES   REMARKS
WISE*          CLOUDY    52  46  82 W13G22    30.02R
JONESVILLE*    SUNNY     59  46  63 W9        30.04R
ABINGDON*      CLOUDY    58  50  76 W9        29.99S
BRISTOL        MOSUNNY   61  50  67 W10       30.00S
KNOXVILLE      MOSUNNY   63  50  62 W6        30.03S
OAK RIDGE      PTSUNNY   64  47  53 VRB5      30.04F
CROSSVILLE     MOSUNNY   62  40  44 NW12G20   30.06F
NASHVILLE      SUNNY     67  47  48 NW6       30.08S
$$

...KEY TO REMARKS...
VSB - VISIBILITY IN MILES
WCI - WIND CHILL INDEX
HX  - HEAT INDEX

$$


USA.gov is the U.S. government's official web portal to all federal, state and local government web resources and services.